Flag for U.S.A. Weather past 2 weeks in Mesquite, Texas, U.S.A.

Now
91 °F

Sunny.


Feels Like: 94 °F
Forecast: 76 / 95 °F
Wind: 12 mph from Southeast

Location: Mesquite Metro Airport

Current Time: Aug 20, 2014 at 9:31:13 PM

Latest Report: Aug 20, 2014 at 7:48 PM


Visibility: 10 mi

Pressure: 29.90 "Hg

Humidity: 44%

Dew point: 66 °F

Location of MesquiteLocation

Historic Weather in Mesquite — Graph

°F

Mesquite temperature yesterday

Maximum temperature yesterday: 93 °F (at 1:55 PM)
Minimum temperature yesterday: 73 °F (at 6:50 AM)
Average temperature yesterday: 81 °F

Past Weeks' High & Low Weather Summary

 TemperatureHumidityPressure
High102 °F (Aug 16, 4:59 PM)100% (Aug 17, 10:50 AM)30.12 "Hg (Aug 17, 10:50 AM)
Low64 °F (Aug 14, 6:50 AM)24% (Aug 12, 4:50 PM)29.80 "Hg (Aug 7, 6:55 PM)
Average81 °F67%29.96 "Hg
* Reported Aug 5 7:55 PM — Aug 20 7:48 PM, Mesquite, Weather by CustomWeather, © 2014

Note: Actual official high and low records may vary slightly from our data, if they occured in-between our weather recording intervals... More about our weather records

Advertising

Mesquite weather history for previous 24 hours

 ConditionsComfort  
Time TempWeatherWind HumidityBarometerVisibility
7:48 PM
Aug 20
91 °FSunny.12 mph44%29.90 "Hg10 mi
6:50 PM93 °FSunny.10 mph39%29.90 "Hg10 mi
5:50 PM97 °FScattered clouds.12 mph34%29.90 "Hg10 mi
4:50 PM97 °FScattered clouds.14 mph32%29.90 "Hg10 mi
3:50 PM97 °FScattered clouds.12 mph32%29.92 "Hg10 mi
1:55 PM93 °FPassing clouds.10 mph41%29.96 "Hg7 mi
12:50 PM88 °FSunny.13 mph52%29.98 "Hg10 mi
11:50 AM88 °FScattered clouds.15 mph55%29.99 "Hg7 mi
10:50 AM88 °FPartly sunny.16 mph59%30.00 "Hg7 mi
9:50 AM82 °FScattered clouds.14 mph74%29.99 "Hg7 mi
7:50 AM79 °FClear.7 mph84%29.97 "Hg10 mi
6:50 AM77 °FClear.7 mph83%29.95 "Hg10 mi
5:35 AM77 °FClear.5 mph82%29.93 "Hg7 mi
5:15 AM78 °FClear.8 mph81%29.92 "Hg7 mi
4:55 AM78 °FClear.6 mph79%29.92 "Hg7 mi
4:35 AM78 °FClear.6 mph79%29.91 "Hg7 mi
3:55 AM78 °FClear.8 mph79%29.91 "Hg7 mi
3:35 AM78 °FClear.10 mph78%29.90 "Hg7 mi
3:15 AM78 °FClear.9 mph78%29.91 "Hg7 mi
2:55 AM78 °FClear.8 mph77%29.91 "Hg7 mi
2:35 AM78 °FClear.8 mph77%29.91 "Hg7 mi
2:15 AM78 °FClear.6 mph77%29.91 "Hg10 mi
1:55 AM77 °FClear.6 mph76%29.91 "Hg10 mi
1:35 AM77 °FClear.8 mph76%29.91 "Hg10 mi
1:15 AM77 °FClear.6 mph76%29.91 "Hg10 mi
12:55 AM77 °FClear.5 mph76%29.91 "Hg10 mi
12:35 AM77 °FClear.5 mph75%29.91 "Hg10 mi
12:15 AM77 °FClear.7 mph74%29.91 "Hg10 mi
11:55 PM
Aug 19
77 °FClear.7 mph74%29.91 "Hg10 mi
11:35 PM78 °FClear.8 mph72%29.91 "Hg10 mi
11:15 PM78 °FClear.7 mph70%29.91 "Hg10 mi
10:55 PM78 °FClear.8 mph68%29.91 "Hg10 mi
10:35 PM79 °FClear.6 mph66%29.91 "Hg10 mi
10:15 PM80 °FClear.10 mph64%29.91 "Hg10 mi
9:55 PM80 °FClear.6 mph65%29.90 "Hg10 mi
Weather by CustomWeather, © 2014

See weather overviewHow to use our weather pages